Location: Karlsruhe
(49.0131°N, 8.3874°E)
Time: 02:53:30
(UTC+01:00)

ISS - Pass Details

Date: 15 November 2017
Orbit: 402 x 407 km, 51.6° (Epoch: 23 November)

Event Time Altitude Azimuth Distance (km) Brightness Sun altitude
Exits shadow 06:27:52 15° 256° (WSW) 1,193 -2.0 -11.2°
Maximum altitude 06:29:27 21° 219° (SW) 977 -2.1 -11.0°
Drops below altitude 10° 06:31:58 10° 168° (SSE) 1,449 -0.6 -10.6°
Sets 06:34:21 0° 152° (SSE) 2,304 0.7 -10.2°
